Date String (YYYY-MM-DD hh:mm:ss) UTC,Instrument flags,absolute air pressure of the measurement (hPa),sample flow rate (lpm),inlet stack bypass flow (lpm),air temperature of the measurement (°C),ambient temperature measured by the external sensor (°C),aerosol sample conditioner tube jacket temperature (°C),OPC LED temperature (°C),internal box temperature (°C),relative humidity of the measurement (%),span deviation,mass concentration of particles derived from Lorenz-Mie calculation of OPC scattering (μg/m³),mass concentration of particles derived from Lorenz-Mie calculation of OPC scattering (μg/m³),mass concentration of particles derived from Lorenz-Mie calculation of OPC scattering (μg/m³)
DateTimeUTC,F1_M11,P_M11,Q1_M11,Q2_M11,T1_M11,T2_M11,T3_M11,T4_M11,T5_M11,U1_M11,ZSPAN_M11,X0_M11,X2_M11,X1_M11
2024-05-06 13:00:00,SystemResetWarning,0810.5,5.00,000.00,023.3,022.3,000.0,031.7,024.9,009.9,0000.0,0007.70,0001.43,0000.47
2024-05-06 13:01:00,SystemResetWarning,0810.4,4.99,000.00,023.3,022.3,000.0,031.7,024.9,010.0,0000.0,0007.84,0001.46,0000.47
2024-05-06 13:02:00,SystemResetWarning,0810.2,5.00,000.00,023.2,022.2,000.0,031.7,024.9,009.8,0000.0,0007.94,0001.51,0000.47
2024-05-06 13:03:00,SystemResetWarning,0810.1,5.00,000.00,023.2,022.2,000.0,031.6,024.9,009.9,0000.0,0008.26,0001.52,0000.46
2024-05-06 13:04:00,SystemResetWarning,0810.1,4.99,000.00,023.2,022.2,000.0,031.6,024.9,010.0,0000.0,0008.31,0001.53,0000.45
2024-05-06 13:05:00,SystemResetWarning,0810.1,5.00,000.00,023.2,022.2,000.0,031.6,024.8,010.0,0000.0,0008.43,0001.52,0000.44
2024-05-06 13:06:00,SystemResetWarning,0810.3,5.00,000.00,023.1,022.1,000.0,031.6,024.8,010.1,0000.0,0008.37,0001.50,0000.43
2024-05-06 13:07:00,SystemResetWarning,0810.0,5.00,000.00,023.1,022.1,000.0,031.6,024.8,010.2,0000.0,0008.69,0001.51,0000.43
2024-05-06 13:08:00,SystemResetWarning,0810.2,5.00,000.00,023.1,022.1,000.0,031.6,024.8,010.2,0000.0,0008.84,0001.51,0000.42
2024-05-06 13:09:00,SystemResetWarning,0810.1,5.00,000.00,023.1,022.1,000.0,031.6,024.8,010.3,0000.0,0008.36,0001.44,0000.41
2024-05-06 13:10:00,SystemResetWarning,0810.3,5.01,000.00,023.1,022.0,000.0,031.5,024.7,010.4,0000.0,0008.90,0001.44,0000.40
2024-05-06 13:11:00,SystemResetWarning,0810.3,5.00,000.00,023.0,022.0,000.0,031.5,024.7,010.5,0000.0,0009.15,0001.38,0000.40
2024-05-06 13:12:00,SystemResetWarning,0810.2,5.00,000.00,023.0,022.0,000.0,031.5,024.7,010.3,0000.0,0009.36,0001.33,0000.39
2024-05-06 13:13:00,SystemResetWarning,0810.1,5.00,000.00,023.0,022.0,000.0,031.5,024.7,010.3,0000.0,0008.78,0001.28,0000.38
2024-05-06 13:14:00,SystemResetWarning,0810.1,5.00,000.00,023.0,021.9,000.0,031.5,024.7,010.4,0000.0,0008.64,0001.23,0000.37
2024-05-06 13:15:00,SystemResetWarning,0810.4,5.00,000.00,023.0,021.9,000.0,031.5,024.6,010.5,0000.0,0009.31,0001.24,0000.37
2024-05-06 13:16:00,SystemResetWarning,0810.5,5.00,000.00,022.9,021.9,000.0,031.4,024.5,010.6,0000.0,0009.09,0001.23,0000.36
2024-05-06 13:17:00,SystemResetWarning,0810.4,4.99,000.00,022.9,021.9,000.0,031.4,024.5,010.8,0000.0,0009.21,0001.21,0000.36
2024-05-06 13:18:00,SystemResetWarning,0810.3,5.00,000.00,022.9,021.9,000.0,031.4,024.5,011.0,0000.0,0009.46,0001.16,0000.35
2024-05-06 13:19:00,SystemResetWarning,0810.2,4.99,000.00,022.9,021.9,000.0,031.4,024.6,011.1,0000.0,0009.86,0001.20,0000.34
2024-05-06 13:20:00,SystemResetWarning,0810.3,5.00,000.00,022.9,022.0,000.0,031.3,024.6,011.1,0000.0,0009.97,0001.18,0000.35
2024-05-06 13:21:00,SystemResetWarning,0810.0,5.00,000.00,022.9,021.9,000.0,031.3,024.6,011.1,0000.0,0009.18,0001.12,0000.34
2024-05-06 13:22:00,SystemResetWarning,0810.0,5.01,000.00,022.9,021.9,000.0,031.3,024.6,011.2,0000.0,0007.90,0001.13,0000.34
2024-05-06 13:23:00,SystemResetWarning,0810.2,5.01,000.00,022.9,021.9,000.0,031.3,024.6,011.3,0000.0,0008.07,0001.14,0000.33
2024-05-06 13:24:00,SystemResetWarning,0810.2,5.00,000.00,022.9,021.9,000.0,031.3,024.5,011.3,0000.0,0008.80,0001.16,0000.34
2024-05-06 13:25:00,SystemResetWarning,0810.0,5.00,000.00,022.8,021.8,000.0,031.2,024.5,011.0,0000.0,0009.70,0001.21,0000.34
2024-05-06 13:26:00,SystemResetWarning,0809.9,5.00,000.00,022.8,021.8,000.0,031.2,024.5,011.1,0000.0,0010.17,0001.20,0000.34
2024-05-06 13:27:00,SystemResetWarning,0810.0,5.00,000.00,022.8,021.8,000.0,031.2,024.5,011.2,0000.0,0011.24,0001.22,0000.35
2024-05-06 13:28:00,SystemResetWarning,0809.8,5.00,000.00,022.8,021.7,000.0,031.2,024.5,011.2,0000.0,0011.49,0001.26,0000.34
2024-05-06 13:29:00,SystemResetWarning,0810.0,5.00,000.00,022.7,021.7,000.0,031.2,024.4,011.3,0000.0,0011.92,0001.40,0000.35
2024-05-06 13:30:00,SystemResetWarning,0809.7,5.00,000.00,022.7,021.7,000.0,031.2,024.4,011.3,0000.0,0013.29,0001.66,0000.38
2024-05-06 13:31:00,SystemResetWarning,0809.9,5.00,000.00,022.7,021.7,000.0,031.2,024.4,011.1,0000.0,0014.12,0001.79,0000.38
2024-05-06 13:32:00,SystemResetWarning,0810.0,5.00,000.00,022.7,021.7,000.0,031.1,024.4,011.2,0000.0,0014.36,0001.84,0000.38
2024-05-06 13:33:00,SystemResetWarning,0810.1,5.00,000.00,022.7,021.6,000.0,031.1,024.3,011.2,0000.0,0014.15,0001.81,0000.39
2024-05-06 13:34:00,SystemResetWarning,0810.2,5.00,000.00,022.6,021.6,000.0,031.1,024.3,011.3,0000.0,0013.49,0001.79,0000.39
2024-05-06 13:35:00,SystemResetWarning,0810.3,5.00,000.00,022.6,021.6,000.0,031.1,024.3,011.3,0000.0,0012.88,0001.81,0000.39
2024-05-06 13:36:00,SystemResetWarning,0810.4,5.00,000.00,022.6,021.6,000.0,031.1,024.2,011.5,0000.0,0012.06,0001.74,0000.39
2024-05-06 13:37:00,SystemResetWarning,0810.4,4.99,000.00,022.6,021.6,000.0,031.0,024.1,011.5,0000.0,0011.57,0001.71,0000.39
2024-05-06 13:38:00,SystemResetWarning,0810.4,4.99,000.00,022.6,021.6,000.0,031.0,024.1,011.4,0000.0,0010.92,0001.70,0000.38
2024-05-06 13:39:00,SystemResetWarning,0810.3,5.00,000.00,022.6,021.6,000.0,031.0,024.2,011.3,0000.0,0010.55,0001.70,0000.38
2024-05-06 13:40:00,SystemResetWarning,0810.2,5.00,000.00,022.6,021.6,000.0,031.0,024.2,011.4,0000.0,0009.55,0001.58,0000.38
2024-05-06 13:41:00,SystemResetWarning,0810.2,5.01,000.00,022.6,021.6,000.0,031.0,024.2,011.4,0000.0,0007.97,0001.29,0000.35
2024-05-06 13:42:00,SystemResetWarning,0810.1,5.00,000.00,022.5,021.6,000.0,031.0,024.2,011.4,0000.0,0006.79,0001.15,0000.34
2024-05-06 13:43:00,SystemResetWarning,0810.3,5.00,000.00,022.5,021.5,000.0,030.9,024.2,011.5,0000.0,0006.78,0001.12,0000.36
2024-05-06 13:44:00,SystemResetWarning,0810.5,4.98,000.00,022.5,021.5,000.0,030.9,024.1,011.7,0000.0,0008.47,0001.11,0000.35
2024-05-06 13:45:00,SystemResetWarning,0810.4,4.99,000.00,022.5,021.5,000.0,030.9,024.1,011.4,0000.0,0008.73,0001.08,0000.35
2024-05-06 13:46:00,SystemResetWarning,0810.5,5.01,000.00,022.5,021.5,000.0,030.9,024.1,011.2,0000.0,0008.63,0001.03,0000.35
2024-05-06 13:47:00,SystemResetWarning,0810.5,5.01,000.00,022.5,021.5,000.0,030.8,024.1,011.3,0000.0,0008.35,0001.05,0000.34
2024-05-06 13:48:00,SystemResetWarning,0810.5,5.00,000.00,022.4,021.5,000.0,030.8,024.1,011.4,0000.0,0007.73,0001.13,0000.35
2024-05-06 13:49:00,SystemResetWarning,0810.7,4.99,000.00,022.4,021.5,000.0,030.8,024.1,011.6,0000.0,0007.90,0001.09,0000.34
2024-05-06 13:50:00,SystemResetWarning,0810.8,4.99,000.00,022.4,021.4,000.0,030.8,024.0,011.7,0000.0,0007.97,0001.08,0000.34
2024-05-06 13:51:00,SystemResetWarning,0810.8,4.99,000.00,022.4,021.4,000.0,030.8,024.0,012.0,0000.0,0007.82,0001.03,0000.33
2024-05-06 13:52:00,SystemResetWarning,0810.8,5.00,000.00,022.4,021.4,000.0,030.8,024.0,011.9,0000.0,0008.32,0000.97,0000.33
2024-05-06 13:53:00,SystemResetWarning,0810.9,5.01,000.00,022.4,021.4,000.0,030.7,024.0,011.4,0000.0,0008.22,0000.97,0000.33
2024-05-06 13:54:00,SystemResetWarning,0810.8,5.01,000.00,022.4,021.4,000.0,030.7,024.0,011.7,0000.0,0007.94,0000.92,0000.31
2024-05-06 13:55:00,SystemResetWarning,0810.8,4.99,000.00,022.4,021.5,000.0,030.7,024.0,011.6,0000.0,0007.01,0000.93,0000.31
2024-05-06 13:56:00,SystemResetWarning,0810.8,5.00,000.00,022.4,021.5,000.0,030.7,024.0,011.4,0000.0,0007.14,0000.91,0000.30
2024-05-06 13:57:00,SystemResetWarning,0810.8,5.02,000.00,022.4,021.5,000.0,030.7,024.0,011.3,0000.0,0007.07,0000.90,0000.29
2024-05-06 13:58:00,SystemResetWarning,0810.9,4.99,000.00,022.4,021.5,000.0,030.7,024.0,011.4,0000.0,0007.01,0000.90,0000.29
2024-05-06 13:59:00,SystemResetWarning,0811.1,5.00,000.00,022.4,021.4,000.0,030.7,023.9,011.7,0000.0,0007.00,0000.82,0000.28
